SQ2WB-13 Weather Reports


time (UTC)temp
C
wind
direction
speed
KPH
gust
KPH
rain 1hr
cm
rain 24hr
cm
rain mn
cm
humidity
%
barometer
mb
20260508043002 6 99 1.6 4.8 0.00 0.00 0.00 88 1009.1
20260508041501 6 88 1.6 1.6 0.00 0.00 0.00 88 1008.8
20260508040002 6 23 1.6 4.8 0.00 0.00 0.00 87 1008.8
20260508034502 6 83 3.2 6.4 0.00 0.00 0.00 87 1008.8
20260508033001 6 67 1.6 1.6 0.00 0.00 0.00 87 1008.8
20260508031501 6 93 3.2 4.8 0.00 0.00 0.00 87 1008.8
20260508030001 6 63 4.8 4.8 0.00 0.00 0.00 86 1008.8
20260508024502 6 80 3.2 4.8 0.00 0.00 0.00 85 1008.8
20260508023001 6 35 4.8 4.8 0.00 0.00 0.00 85 1008.8
20260508021501 6 33 1.6 4.8 0.00 0.00 0.00 85 1008.8
20260508020001 6 90 1.6 1.6 0.00 0.00 0.00 84 1008.8
20260508014501 6 49 3.2 4.8 0.00 0.00 0.00 84 1008.4
20260508013001 6 41 4.8 6.4 0.00 0.00 0.00 83 1008.8
20260508011501 6 70 3.2 4.8 0.00 0.00 0.00 83 1008.8
20260508010001 6 83 3.2 4.8 0.00 0.00 0.00 82 1008.8
20260508004501 6 101 1.6 1.6 0.00 0.00 0.00 82 1008.8
20260508003002 6 90 1.6 1.6 0.00 0.00 0.00 82 1008.8
20260508001501 7 111 1.6 1.6 0.00 0.00 0.00 81 1008.8
20260508000002 7 83 1.6 1.6 0.00 0.00 0.00 81 1008.8
20260507234502 7 111 0.0 0.0 0.00 0.00 0.00 81 1008.8
20260507233001 7 110 1.6 1.6 0.00 0.00 0.00 81 1008.8
20260507231501 7 111 1.6 4.8 0.00 0.00 0.00 81 1008.8
20260507230001 7 75 1.6 1.6 0.00 0.00 0.00 81 1008.8
20260507224500 7 106 4.8 6.4 0.00 0.00 0.00 81 1008.4
20260507223002 7 43 1.6 1.6 0.00 0.00 0.00 81 1008.4
20260507221502 7 45 6.4 9.7 0.00 0.00 0.00 81 1008.4
20260507220002 7 97 1.6 1.6 0.00 0.00 0.00 80 1008.4
20260507214502 7 99 1.6 1.6 0.00 0.00 0.00 80 1008.4
20260507213001 7 71 4.8 6.4 0.00 0.00 0.00 80 1008.4
20260507211502 7 332 3.2 4.8 0.00 0.00 0.00 81 1008.4
20260507210002 7 67 1.6 3.2 0.00 0.00 0.00 80 1008.1
20260507204501 7 81 1.6 4.8 0.00 0.00 0.00 81 1008.1
20260507203001 7 20 3.2 4.8 0.00 0.00 0.00 81 1008.1
20260507201501 7 4 3.2 4.8 0.00 0.00 0.00 81 1007.7
20260507200002 7 83 1.6 1.6 0.00 0.00 0.00 81 1007.7
20260507194501 7 36 1.6 1.6 0.00 0.00 0.00 81 1007.7
20260507193001 7 48 3.2 6.4 0.00 0.00 0.00 80 1007.7
20260507191501 7 77 3.2 4.8 0.00 0.00 0.00 80 1007.7
20260507190002 7 53 4.8 4.8 0.00 0.00 0.00 80 1006.7
20260507184502 7 72 3.2 4.8 0.00 0.00 0.00 80 1006.7
20260507183001 8 37 1.6 3.2 0.00 0.00 0.00 77 1006.4
20260507181502 8 350 4.8 9.7 0.00 0.00 0.00 77 1006.4
20260507180001 8 31 9.7 12.9 0.00 0.00 0.00 77 1006.4
20260507174501 10 5 4.8 6.4 0.00 0.00 0.00 75 1006.1
20260507173002 10 358 12.9 20.9 0.00 0.00 0.00 74 1005.7
20260507171501 10 43 6.4 8.0 0.00 0.00 0.00 73 1005.7
20260507170002 10 336 9.7 12.9 0.00 0.00 0.00 73 1005.7
20260507164501 10 0 8.0 8.0 0.00 0.00 0.00 72 1005.7
20260507163002 10 20 6.4 8.0 0.00 0.00 0.00 75 1005.7
20260507161505 10 352 8.0 14.5 0.00 0.00 0.00 75 1005.7
20260507160002 10 90 3.2 4.8 0.00 0.00 0.00 77 1005.7
20260507154501 10 90 4.8 4.8 0.00 0.00 0.00 76 1005.7
20260507153001 10 35 3.2 4.8 0.00 0.00 0.00 77 1005.7
20260507151501 10 7 3.2 6.4 0.00 0.00 0.00 81 1005.7
20260507150001 10 69 8.0 12.9 0.00 0.00 0.00 83 1005.7
20260507144501 10 68 4.8 8.0 0.00 0.00 0.00 76 1005.7
20260507143002 10 59 3.2 6.4 0.00 0.00 0.00 75 1005.7
20260507141502 10 41 3.2 8.0 0.00 0.00 0.00 77 1005.7
20260507140001 10 18 4.8 6.4 0.00 0.00 0.00 76 1005.4
20260507134502 10 55 6.4 8.0 0.00 0.00 0.00 76 1005.4
20260507133002 10 36 6.4 8.0 0.00 0.00 0.00 76 1005.4
20260507131501 10 33 4.8 4.8 0.00 0.00 0.00 76 1005.4
20260507130002 10 11 6.4 8.0 0.00 0.00 0.00 76 1005.4
20260507124502 10 32 4.8 8.0 0.00 0.00 0.00 77 1005.4
20260507123001 10 340 3.2 4.8 0.00 0.00 0.00 78 1005.0
20260507121502 10 9 4.8 6.4 0.00 0.00 0.00 79 1005.0
20260507120002 10 97 1.6 3.2 0.00 0.00 0.00 81 1005.0
20260507114501 10 88 1.6 4.8 0.00 0.00 0.00 75 1005.0
20260507113000 10 40 3.2 4.8 0.00 0.00 0.00 74 1004.7
20260507111503 10 101 0.0 1.6 0.00 0.00 0.00 75 1004.7
20260507110001 10 359 6.4 9.7 0.00 0.00 0.00 75 1004.0
20260507104502 10 40 3.2 4.8 0.00 0.00 0.00 76 1004.0
20260507103001 10 37 12.9 17.7 0.00 0.00 0.00 76 1004.0
20260507101501 10 5 12.9 17.7 0.00 0.00 0.00 77 1003.7
20260507100002 10 84 6.4 9.7 0.00 0.00 0.00 79 1003.7
20260507094501 8 104 1.6 3.2 0.00 0.00 0.00 81 1003.7
20260507093001 8 0 9.7 12.9 0.00 0.00 0.00 82 1003.7
20260507091502 8 334 6.4 8.0 0.00 0.00 0.00 81 1003.3
20260507090002 8 304 4.8 6.4 0.00 0.00 0.00 80 1003.0
20260507084502 8 44 4.8 6.4 0.00 0.00 0.00 80 1003.0
20260507083001 8 24 4.8 4.8 0.00 0.00 0.00 83 1003.0
20260507081501 7 48 4.8 6.4 0.00 0.00 0.00 84 1003.0
20260507080001 8 37 4.8 6.4 0.00 0.00 0.00 84 1002.7
20260507074504 8 62 3.2 4.8 0.00 0.00 0.00 83 1002.3
20260507073002 8 55 4.8 6.4 0.00 0.00 0.00 82 1002.3
20260507071500 8 16 9.7 12.9 0.00 0.00 0.00 80 1002.3
20260507070003 10 55 4.8 6.4 0.00 0.00 0.00 80 1002.0
20260507064501 8 74 4.8 4.8 0.00 0.00 0.00 84 1002.0
20260507063001 8 359 4.8 4.8 0.00 0.00 0.00 84 1002.0
20260507061502 7 8 9.7 9.7 0.00 0.00 0.00 85 1002.0
20260507060001 7 12 4.8 4.8 0.00 0.00 0.00 87 1002.0
20260507054500 7 64 1.6 3.2 0.00 0.00 0.00 87 1001.3
20260507053003 7 11 6.4 6.4 0.00 0.00 0.00 88 1001.3
20260507051501 7 88 3.2 4.8 0.00 0.00 0.00 88 1001.3
20260507050001 7 72 3.2 4.8 0.00 0.00 0.00 89 1000.6
20260507044502 7 63 4.8 4.8 0.00 0.00 0.00 90 1000.6